Weather History for Moultrie, GA

Change the Weather History Date:

Sunday, November 20, 2011

  Actual Average (KMUL) Record (KMUL)
Temperature  
Mean Temperature 68 °F -  
Max Temperature 75 °F 69 °F 85 °F (1942)
Min Temperature 60 °F 48 °F 27 °F (1968)
Cooling Degree Days 2    
Growing Degree Days 18 (Base 50)    
Moisture  
Dew Point 62 °F    
Average Humidity 84    
Maximum Humidity 94    
Minimum Humidity 61    
Precipitation  
Precipitation 0.00 in - - ()
Sea Level Pressure  
Sea Level Pressure 30.28 in    
Wind  
Wind Speed 1 mph (ENE)    
Max Wind Speed 6 mph    
Max Gust Speed -    
Visibility 9 miles    
Events Rain    
Averages and records for this station are not official NWS values.
T = Trace of Precipitation, MM = Missing Value Source: NWS Daily Summary

Daily Weather History Graph

Daily Weather History Graph

Search for Another Location

Airport:

Trip Planner

Search our weather history database for the weather conditions in past years. The results will help you decide how hot, cold, wet, or windy it might be!

Date:

Astronomy

Nov. 20, 2011 Rise Set
Actual Time 7:06 AM EST 5:35 PM EST
Civil Twilight 6:40 AM EST 6:00 PM EST
Nautical Twilight 6:11 AM EST 6:30 PM EST
Astronomical Twilight 5:42 AM EST 6:59 PM EST
Moon 1:52 AM EST (11/20) 2:07 PM EST (11/20)
Length of Visible Light 11h 20m
Length of Day
10h 28m
Waning Crescent, 27% of the Moon is Illuminated
Nov 20
Waning Crescent
Nov 25
New
Dec 2
First Quarter
Dec 10
Full
Dec 17
Last Quarter

Hourly Weather History & Observations

Time (EST) Temp. Dew Point Humidity Pressure Visibility Wind Dir Wind Speed Gust Speed Precip Events Conditions
12:15 AM 64.4 °F 60.8 °F 88% 30.26 in 10.0 mi Calm Calm - N/A   Mostly Cloudy
12:35 AM 64.4 °F 60.8 °F 88% 30.26 in 10.0 mi Calm Calm - N/A   Overcast
12:55 AM 64.4 °F 60.8 °F 88% 30.26 in 10.0 mi East 3.5 mph - N/A   Overcast
1:15 AM 62.6 °F 60.8 °F 94% 30.26 in 10.0 mi Calm Calm - N/A   Overcast
1:35 AM 62.6 °F 60.8 °F 94% 30.26 in 10.0 mi ESE 3.5 mph - N/A   Overcast
1:55 AM 62.6 °F 60.8 °F 94% 30.26 in 10.0 mi Calm Calm - N/A   Overcast
2:15 AM 62.6 °F 60.8 °F 94% 30.25 in 10.0 mi ESE 4.6 mph - N/A   Overcast
2:35 AM 62.6 °F 60.8 °F 94% 30.26 in 10.0 mi Calm Calm - N/A   Mostly Cloudy
2:55 AM 62.6 °F 60.8 °F 94% 30.26 in 10.0 mi Calm Calm - N/A   Mostly Cloudy
3:15 AM 62.6 °F 60.8 °F 94% 30.25 in 10.0 mi Calm Calm - N/A   Overcast
3:35 AM 62.6 °F 60.8 °F 94% 30.25 in 7.0 mi ESE 3.5 mph - N/A   Mostly Cloudy
3:55 AM 62.6 °F 60.8 °F 94% 30.25 in 7.0 mi Calm Calm - N/A   Scattered Clouds
4:15 AM 60.8 °F 59.0 °F 94% 30.25 in 7.0 mi Calm Calm - N/A   Scattered Clouds
4:35 AM 60.8 °F 59.0 °F 94% 30.25 in 7.0 mi East 3.5 mph - N/A   Clear
4:55 AM 60.8 °F 59.0 °F 94% 30.25 in 7.0 mi ESE 3.5 mph - N/A   Scattered Clouds
5:15 AM 60.8 °F 59.0 °F 94% 30.26 in 7.0 mi East 3.5 mph - N/A   Mostly Cloudy
5:35 AM 60.8 °F 59.0 °F 94% 30.26 in 7.0 mi ESE 3.5 mph - N/A   Overcast
5:55 AM 60.8 °F 59.0 °F 94% 30.26 in 7.0 mi Calm Calm - N/A   Scattered Clouds
6:35 AM 60.8 °F 59.0 °F 94% 30.27 in 5.0 mi East 3.5 mph - N/A   Overcast
6:55 AM 60.8 °F 59.0 °F 94% 30.27 in 5.0 mi ESE 3.5 mph - N/A   Scattered Clouds
7:35 AM 60.8 °F 59.0 °F 94% 30.28 in 5.0 mi Calm Calm - N/A   Overcast
7:55 AM 60.8 °F 59.0 °F 94% 30.29 in 5.0 mi Calm Calm - N/A   Overcast
8:15 AM 62.6 °F 60.8 °F 94% 30.30 in 7.0 mi ESE 3.5 mph - N/A   Overcast
8:55 AM 62.6 °F 60.8 °F 94% 30.31 in 7.0 mi East 3.5 mph - N/A   Overcast
9:15 AM 64.4 °F 62.6 °F 94% 30.32 in 10.0 mi Calm Calm - N/A   Overcast
9:55 AM 68.0 °F 62.6 °F 83% 30.34 in 10.0 mi Calm Calm - N/A   Mostly Cloudy
10:15 AM 68.0 °F 62.6 °F 83% 30.34 in 10.0 mi Calm Calm - N/A   Overcast
10:35 AM 69.8 °F 62.6 °F 78% 30.34 in 10.0 mi NNE 3.5 mph - N/A   Overcast
10:55 AM 69.8 °F 62.6 °F 78% 30.34 in 10.0 mi Calm Calm - N/A   Mostly Cloudy
11:15 AM 69.8 °F 62.6 °F 78% 30.34 in 10.0 mi Calm Calm - N/A   Overcast
11:35 AM 69.8 °F 62.6 °F 78% 30.33 in 10.0 mi Calm Calm - N/A   Overcast
11:55 AM 71.6 °F 62.6 °F 73% 30.33 in 10.0 mi Calm Calm - N/A   Mostly Cloudy
12:15 PM 71.6 °F 62.6 °F 73% 30.32 in 10.0 mi Calm Calm - N/A   Mostly Cloudy
12:55 PM 73.4 °F 62.6 °F 69% 30.29 in 10.0 mi NNE 3.5 mph - N/A   Scattered Clouds
1:15 PM 73.4 °F 62.6 °F 69% 30.29 in 10.0 mi Calm Calm - N/A   Mostly Cloudy
1:35 PM 73.4 °F 62.6 °F 69% 30.28 in 10.0 mi Calm Calm - N/A   Mostly Cloudy
2:15 PM 73.4 °F 60.8 °F 65% 30.27 in 10.0 mi Calm Calm - N/A   Scattered Clouds
2:35 PM 75.2 °F 60.8 °F 61% 30.27 in 10.0 mi Calm Calm - N/A   Mostly Cloudy
2:55 PM 73.4 °F 62.6 °F 69% 30.27 in 10.0 mi NNW 5.8 mph - N/A   Mostly Cloudy
3:15 PM 73.4 °F 62.6 °F 69% 30.27 in 10.0 mi North 5.8 mph - N/A   Mostly Cloudy
3:55 PM 71.6 °F 62.6 °F 73% 30.26 in 10.0 mi NE 3.5 mph - N/A   Overcast
4:15 PM 71.6 °F 62.6 °F 73% 30.26 in 10.0 mi Calm Calm - N/A   Mostly Cloudy
4:35 PM 71.6 °F 62.6 °F 73% 30.27 in 10.0 mi NNE 4.6 mph - N/A   Overcast
4:55 PM 71.6 °F 64.4 °F 78% 30.26 in 10.0 mi Calm Calm - N/A Rain Light Rain
5:15 PM 69.8 °F 64.4 °F 83% 30.26 in 10.0 mi Calm Calm - N/A   Overcast
5:35 PM 69.8 °F 64.4 °F 83% 30.27 in 10.0 mi Calm Calm - N/A   Overcast
5:55 PM 69.8 °F 64.4 °F 83% 30.27 in 10.0 mi Calm Calm - N/A   Overcast
6:15 PM 69.8 °F 64.4 °F 83% 30.27 in 10.0 mi Calm Calm - N/A   Overcast
6:35 PM 69.8 °F 64.4 °F 83% 30.27 in 10.0 mi Calm Calm - N/A   Overcast
6:55 PM 69.8 °F 62.6 °F 78% 30.28 in 10.0 mi Calm Calm - N/A   Overcast
7:15 PM 69.8 °F 64.4 °F 83% 30.28 in 10.0 mi Calm Calm - N/A   Overcast
7:35 PM 68.0 °F 64.4 °F 88% 30.28 in 10.0 mi Calm Calm - N/A   Mostly Cloudy
7:55 PM 68.0 °F 62.6 °F 83% 30.28 in 10.0 mi Calm Calm - N/A   Mostly Cloudy
8:15 PM 68.0 °F 64.4 °F 88% 30.29 in 10.0 mi NW 4.6 mph - N/A   Scattered Clouds
8:35 PM 68.0 °F 62.6 °F 83% 30.29 in 10.0 mi Calm Calm - N/A   Scattered Clouds
8:55 PM 68.0 °F 62.6 °F 83% 30.28 in 10.0 mi NNE 3.5 mph - N/A   Mostly Cloudy
9:15 PM 68.0 °F 62.6 °F 83% 30.29 in 10.0 mi North 3.5 mph - N/A   Scattered Clouds
9:35 PM 68.0 °F 62.6 °F 83% 30.29 in 10.0 mi NNE 3.5 mph - N/A   Clear
9:55 PM 68.0 °F 62.6 °F 83% 30.29 in 10.0 mi ENE 3.5 mph - N/A   Scattered Clouds
10:15 PM 68.0 °F 62.6 °F 83% 30.28 in 10.0 mi ENE 3.5 mph - N/A   Scattered Clouds
10:35 PM 68.0 °F 60.8 °F 78% 30.28 in 10.0 mi NE 3.5 mph - N/A   Scattered Clouds
10:55 PM 68.0 °F 60.8 °F 78% 30.28 in 10.0 mi NE 3.5 mph - N/A   Clear
11:15 PM 68.0 °F 60.8 °F 78% 30.28 in 10.0 mi Calm Calm - N/A   Clear
11:35 PM 68.0 °F 60.8 °F 78% 30.28 in 10.0 mi Calm Calm - N/A   Clear
11:55 PM 66.2 °F 60.8 °F 83% 30.28 in 10.0 mi Calm Calm - N/A   Clear